Location: Katzenstein
(51.7484°N, 10.2155°E)
Time: 06:36:52
(UTC+00:00)

Cosmos 2322 Rocket - Pass Details

Date: 17 February 2020
Orbit: 833 x 851 km, 71.0° (Epoch: 09 April)

Event Time Altitude Azimuth Distance (km) Brightness Sun altitude
Exits shadow 03:57:04 13° 333° (NNW) 2,299 4.3 -24.3°
Maximum altitude 03:57:55 13° 342° (NNW) 2,275 4.4 -24.2°
Drops below altitude 10° 04:00:31 10° 10° (N) 2,490 4.9 -23.8°
Sets 04:04:32 0° 37° (NE) 3,427 6.1 -23.2°
